Location: ???????
(55.3754°N, 39.3545°E)
Time: 07:39:37
(UTC+00:00)

CZ-2D R/B - Pass Details

Date: 14 April 2026
Orbit: 789 x 842 km, 98.9° (Epoch: 12 May)

Event Time Altitude Azimuth Distance (km) Brightness Sun altitude
Rises 23:45:26 0° 20° (NNE) 3,302 6.7 -18.4°
Reaches altitude 10° 23:47:53 10° 27° (NNE) 2,371 5.8 -18.2°
Maximum altitude 23:52:50 41° 98° (E) 1,139 3.1 -17.8°
Enters shadow 23:57:21 12° 167° (SSE) 2,222 4.0 -17.4°
